TimeAKDT,TemperatureF,Dew PointF,Humidity,Sea Level PressureIn,VisibilityMPH,Wind Direction,Wind SpeedMPH,Gust SpeedMPH,PrecipitationIn,Events,Conditions,WindDirDegrees,DateUTC
12:29 AM,23.0,21.2,93,29.83,2.0,Calm,Calm,-,0.00,Snow,Light Snow,0,2013-03-24 08:29:00
12:49 AM,24.8,21.2,86,29.83,2.0,North,3.5,-,0.00,Snow,Light Snow,10,2013-03-24 08:49:00
12:53 AM,24.1,21.9,91,29.84,1.8,Calm,Calm,-,0.00,Snow,Light Snow,0,2013-03-24 08:53:00
1:10 AM,24.8,21.2,86,29.82,2.0,Calm,Calm,-,0.00,Snow,Light Snow,0,2013-03-24 09:10:00
1:26 AM,24.8,21.2,86,29.82,1.5,Calm,Calm,-,0.01,Snow,Light Snow,0,2013-03-24 09:26:00
1:51 AM,24.8,21.2,86,29.82,2.0,Calm,Calm,-,0.01,Snow,Light Snow,0,2013-03-24 09:51:00
1:53 AM,24.1,21.9,91,29.83,2.0,Calm,Calm,-,0.01,Snow,Light Snow,0,2013-03-24 09:53:00
2:01 AM,24.8,21.2,86,29.81,1.8,Calm,Calm,-,0.00,Snow,Light Snow,0,2013-03-24 10:01:00
2:30 AM,23.0,21.2,93,29.81,2.0,Calm,Calm,-,0.01,Snow,Light Snow,0,2013-03-24 10:30:00
2:53 AM,23.0,21.0,92,29.83,3.0,Calm,Calm,-,0.01,Snow,Light Snow,0,2013-03-24 10:53:00
3:01 AM,23.0,21.2,93,29.81,2.0,Calm,Calm,-,0.00,Snow,Light Snow,0,2013-03-24 11:01:00
3:41 AM,21.2,19.4,93,29.80,1.8,SW,3.5,-,0.00,Snow,Light Snow,220,2013-03-24 11:41:00
3:47 AM,21.2,19.4,93,29.80,2.0,SW,3.5,-,0.00,Snow,Light Snow,230,2013-03-24 11:47:00
3:53 AM,21.9,19.0,89,29.82,2.0,SW,3.5,-,0.00,Snow,Light Snow,230,2013-03-24 11:53:00
4:35 AM,19.4,17.6,93,29.80,3.0,South,3.5,-,0.00,Snow,Light Snow,190,2013-03-24 12:35:00
4:53 AM,19.9,18.0,92,29.81,5.0,Calm,Calm,-,0.00,Snow,Light Snow,0,2013-03-24 12:53:00
5:53 AM,18.0,16.0,92,29.80,10.0,Calm,Calm,-,0.00,,Overcast,0,2013-03-24 13:53:00
6:53 AM,18.0,15.1,88,29.79,5.0,Calm,Calm,-,0.00,Snow,Light Snow,0,2013-03-24 14:53:00
7:53 AM,18.0,14.0,84,29.78,5.0,Calm,Calm,-,0.00,,Overcast,0,2013-03-24 15:53:00
8:53 AM,17.1,14.0,88,29.77,7.0,Calm,Calm,-,N/A,,Overcast,0,2013-03-24 16:53:00
9:53 AM,17.1,14.0,88,29.75,7.0,Calm,Calm,-,0.00,Snow,Light Snow,0,2013-03-24 17:53:00
10:53 AM,18.0,14.0,84,29.75,9.0,Calm,Calm,-,0.00,,Overcast,0,2013-03-24 18:53:00
11:53 AM,19.0,15.1,85,29.73,6.0,Calm,Calm,-,0.00,Snow,Light Snow,0,2013-03-24 19:53:00
12:53 PM,19.9,15.1,81,29.71,7.0,Calm,Calm,-,0.00,,Overcast,0,2013-03-24 20:53:00
1:53 PM,19.9,16.0,85,29.69,10.0,Calm,Calm,-,N/A,,Overcast,0,2013-03-24 21:53:00
2:53 PM,21.9,14.0,72,29.67,10.0,Calm,Calm,-,N/A,,Overcast,0,2013-03-24 22:53:00
3:53 PM,21.9,15.1,75,29.65,10.0,SW,3.5,-,N/A,,Overcast,220,2013-03-24 23:53:00
4:03 PM,21.2,17.6,86,29.63,10.0,Calm,Calm,-,N/A,,Overcast,0,2013-03-25 00:03:00
4:53 PM,21.9,17.1,82,29.63,10.0,South,3.5,-,N/A,,Overcast,180,2013-03-25 00:53:00
5:53 PM,21.9,18.0,85,29.62,6.0,Calm,Calm,-,0.00,Snow,Light Snow,0,2013-03-25 01:53:00
6:53 PM,21.9,19.0,89,29.62,5.0,Calm,Calm,-,0.00,Snow,Light Snow,0,2013-03-25 02:53:00
7:06 PM,21.2,17.6,86,29.59,4.0,Calm,Calm,-,0.00,Snow,Light Snow,0,2013-03-25 03:06:00
7:36 PM,21.2,21.2,100,29.58,2.0,Calm,Calm,-,0.00,Snow,Light Snow,0,2013-03-25 03:36:00
7:53 PM,21.9,18.0,85,29.60,2.0,Calm,Calm,-,0.00,Snow,Light Snow,0,2013-03-25 03:53:00
8:16 PM,21.2,17.6,86,29.58,1.8,Calm,Calm,-,0.00,Snow,Light Snow,0,2013-03-25 04:16:00
8:39 PM,21.2,19.4,93,29.58,2.5,Calm,Calm,-,0.00,Snow,Light Snow,0,2013-03-25 04:39:00
8:53 PM,21.9,19.9,92,29.60,2.5,Calm,Calm,-,0.01,Snow,Light Snow,0,2013-03-25 04:53:00
9:00 PM,21.2,19.4,93,29.58,2.0,Calm,Calm,-,0.00,Snow,Light Snow,0,2013-03-25 05:00:00
9:32 PM,21.2,19.4,93,29.57,3.0,Calm,Calm,-,0.00,Snow,Light Snow,0,2013-03-25 05:32:00
9:45 PM,21.2,19.4,93,29.57,3.0,Calm,Calm,-,0.00,Snow,Light Snow,0,2013-03-25 05:45:00
9:53 PM,21.9,19.9,92,29.58,2.5,Calm,Calm,-,0.00,Snow,Light Snow,0,2013-03-25 05:53:00
10:23 PM,21.2,19.4,93,29.56,3.0,Calm,Calm,-,0.00,Snow,Light Snow,0,2013-03-25 06:23:00
10:53 PM,21.9,21.0,96,29.57,4.0,Calm,Calm,-,0.00,Snow,Light Snow,0,2013-03-25 06:53:00
11:53 PM,23.0,21.9,96,29.56,4.0,Calm,Calm,-,0.00,Snow,Light Snow,0,2013-03-25 07:53:00